Time,TemperatureF,DewpointF,PressureIn,WindDirection,WindDirectionDegrees,WindSpeedMPH,WindSpeedGustMPH,Humidity,HourlyPrecipIn,Conditions,Clouds,dailyrainin,SoftwareType,DateUTC
2013-08-30 16:52:00,72.9,67.1,29.67,WNW,302,0.0,0.0,82,0.00,,---,0.00,VWS V14.01,2013-08-30 21:52:00,
2013-08-30 16:53:00,73.0,67.2,29.67,WNW,302,0.0,0.0,82,0.00,,---,0.00,VWS V14.01,2013-08-30 21:53:00,
2013-08-30 16:58:00,73.0,67.2,29.67,WNW,302,0.0,0.0,82,0.00,,---,0.00,VWS V14.01,2013-08-30 21:58:00,
2013-08-30 17:03:00,72.7,66.9,29.67,WNW,302,0.0,0.0,82,0.00,,---,0.00,VWS V14.01,2013-08-30 22:03:00,
2013-08-30 17:08:00,72.5,66.7,29.67,WNW,302,0.0,0.0,82,0.00,,---,0.00,VWS V14.01,2013-08-30 22:08:00,
2013-08-30 17:13:00,72.5,66.7,29.67,WNW,302,0.0,0.0,82,0.00,,---,0.00,VWS V14.01,2013-08-30 22:13:00,
2013-08-30 17:18:00,72.3,66.5,29.67,WNW,302,0.0,0.0,82,0.00,,---,0.00,VWS V14.01,2013-08-30 22:18:00,
2013-08-30 17:23:00,72.3,66.5,29.67,WNW,302,0.0,0.0,82,0.00,,---,0.00,VWS V14.01,2013-08-30 22:23:00,
2013-08-30 17:28:00,72.5,66.7,29.67,WNW,302,0.0,0.0,82,0.00,,---,0.00,VWS V14.01,2013-08-30 22:28:00,
2013-08-30 17:33:00,72.7,66.9,29.67,WNW,302,0.0,0.0,82,0.00,,---,0.00,VWS V14.01,2013-08-30 22:33:00,
2013-08-30 17:38:00,72.7,66.9,29.67,WNW,302,0.0,0.0,82,0.00,,---,0.00,VWS V14.01,2013-08-30 22:38:00,
2013-08-30 17:43:00,72.9,67.1,29.67,WNW,302,0.0,0.0,82,0.00,,---,0.00,VWS V14.01,2013-08-30 22:43:00,
2013-08-30 17:48:00,72.9,67.1,29.67,WNW,302,0.0,0.0,82,0.00,,---,0.00,VWS V14.01,2013-08-30 22:48:00,
2013-08-30 17:52:00,72.9,67.1,29.67,WNW,302,0.0,0.0,82,0.87,,OVC,0.00,VWS V14.01,2013-08-30 22:52:00,
2013-08-30 17:53:00,72.7,66.9,29.70,WNW,302,0.0,0.0,82,0.00,,---,0.00,VWS V14.01,2013-08-30 22:53:00,
2013-08-30 17:54:00,73.0,67.2,29.67,WNW,302,0.0,0.0,82,0.00,,OVC,0.00,VWS V14.01,2013-08-30 22:54:00,
2013-08-30 17:55:00,73.0,67.2,29.67,WNW,302,0.0,0.0,82,0.00,,OVC,0.00,VWS V14.01,2013-08-30 22:55:00,
2013-08-30 17:56:00,73.0,67.2,29.67,WNW,302,0.0,0.0,82,0.00,,OVC,0.00,VWS V14.01,2013-08-30 22:56:00,
2013-08-30 17:57:00,73.0,67.2,29.67,WNW,302,0.0,0.0,82,0.00,,OVC,0.00,VWS V14.01,2013-08-30 22:57:00,
2013-08-30 17:58:00,72.5,66.7,29.70,WNW,302,0.0,0.0,82,0.00,,---,0.00,VWS V14.01,2013-08-30 22:58:00,
2013-08-30 17:59:00,73.0,67.2,29.67,WNW,302,0.0,0.0,82,0.00,,OVC,0.00,VWS V14.01,2013-08-30 22:59:00,
2013-08-30 18:00:00,73.0,67.2,29.67,WNW,302,0.0,0.0,82,0.00,,OVC,0.00,VWS V14.01,2013-08-30 23:00:00,
2013-08-30 18:01:00,73.0,67.2,29.67,WNW,302,0.0,0.0,82,0.00,,OVC,0.00,VWS V14.01,2013-08-30 23:01:00,
2013-08-30 18:02:00,73.0,67.2,29.67,WNW,302,0.0,0.0,82,0.00,,OVC,0.00,VWS V14.01,2013-08-30 23:02:00,
2013-08-30 18:03:00,72.7,66.9,29.70,WNW,302,0.0,0.0,82,0.00,,---,0.00,VWS V14.01,2013-08-30 23:03:00,
2013-08-30 18:04:00,72.5,66.7,29.67,WNW,302,0.0,0.0,82,0.00,,OVC,0.00,VWS V14.01,2013-08-30 23:04:00,
2013-08-30 18:05:00,72.5,66.7,29.67,WNW,302,0.0,0.0,82,0.00,,OVC,0.00,VWS V14.01,2013-08-30 23:05:00,
2013-08-30 18:06:00,72.5,66.7,29.67,WNW,302,0.0,0.0,82,0.00,,OVC,0.00,VWS V14.01,2013-08-30 23:06:00,
2013-08-30 18:07:00,72.5,66.7,29.67,WNW,302,0.0,0.0,82,0.00,,OVC,0.00,VWS V14.01,2013-08-30 23:07:00,
2013-08-30 18:08:00,72.9,67.1,29.70,WNW,302,0.0,0.0,82,0.00,,---,0.00,VWS V14.01,2013-08-30 23:08:00,
2013-08-30 18:09:00,72.5,66.7,29.67,WNW,302,0.0,0.0,82,0.00,,OVC,0.00,VWS V14.01,2013-08-30 23:09:00,
2013-08-30 18:10:00,72.5,66.7,29.67,WNW,302,0.0,0.0,82,0.00,,OVC,0.00,VWS V14.01,2013-08-30 23:10:00,
2013-08-30 18:11:00,72.5,66.7,29.67,WNW,302,0.0,0.0,82,0.00,,OVC,0.00,VWS V14.01,2013-08-30 23:11:00,
2013-08-30 18:12:00,72.5,66.7,29.67,WNW,302,0.0,0.0,82,0.00,,OVC,0.00,VWS V14.01,2013-08-30 23:12:00,
2013-08-30 18:13:00,73.0,67.2,29.70,WNW,302,0.0,0.0,82,0.00,,---,0.00,VWS V14.01,2013-08-30 23:13:00,
2013-08-30 18:14:00,72.7,66.9,29.67,WNW,302,0.0,0.0,82,0.00,,OVC,0.00,VWS V14.01,2013-08-30 23:14:00,
2013-08-30 18:15:00,72.5,66.7,29.67,WNW,302,0.0,0.0,82,0.00,,OVC,0.00,VWS V14.01,2013-08-30 23:15:00,
2013-08-30 18:16:00,72.5,66.7,29.67,WNW,302,0.0,0.0,82,0.00,,OVC,0.00,VWS V14.01,2013-08-30 23:16:00,
2013-08-30 18:17:00,72.3,66.5,29.67,WNW,302,0.0,0.0,82,0.00,,OVC,0.00,VWS V14.01,2013-08-30 23:17:00,
2013-08-30 18:18:00,72.9,67.1,29.70,WNW,302,0.0,0.0,82,0.00,,---,0.00,VWS V14.01,2013-08-30 23:18:00,
2013-08-30 18:19:00,72.1,66.3,29.67,WNW,302,0.0,0.0,82,0.00,,OVC,0.00,VWS V14.01,2013-08-30 23:19:00,
2013-08-30 18:20:00,72.1,66.3,29.67,WNW,302,0.0,0.0,82,0.00,,OVC,0.00,VWS V14.01,2013-08-30 23:20:00,
2013-08-30 18:21:00,72.3,66.5,29.67,WNW,302,0.0,0.0,82,0.00,,OVC,0.00,VWS V14.01,2013-08-30 23:21:00,
2013-08-30 18:22:00,72.3,66.5,29.67,WNW,302,0.0,0.0,82,0.00,,OVC,0.00,VWS V14.01,2013-08-30 23:22:00,
2013-08-30 18:23:00,72.9,67.1,29.70,WNW,302,0.0,0.0,82,0.00,,---,0.00,VWS V14.01,2013-08-30 23:23:00,
2013-08-30 18:24:00,72.3,66.5,29.67,WNW,302,0.0,0.0,82,0.00,,OVC,0.00,VWS V14.01,2013-08-30 23:24:00,
2013-08-30 18:25:00,72.3,66.5,29.67,WNW,302,0.0,0.0,82,0.00,,OVC,0.00,VWS V14.01,2013-08-30 23:25:00,
2013-08-30 18:26:00,72.3,66.5,29.67,WNW,302,0.0,0.0,82,0.00,,OVC,0.00,VWS V14.01,2013-08-30 23:26:00,
2013-08-30 18:27:00,72.3,66.5,29.67,WNW,302,0.0,0.0,82,0.00,,OVC,0.00,VWS V14.01,2013-08-30 23:27:00,
2013-08-30 18:28:00,72.9,67.1,29.70,WNW,302,0.0,0.0,82,0.00,,---,0.00,VWS V14.01,2013-08-30 23:28:00,
2013-08-30 18:29:00,72.5,66.7,29.67,WNW,302,0.0,0.0,82,0.00,,OVC,0.00,VWS V14.01,2013-08-30 23:29:00,
2013-08-30 18:30:00,72.5,66.7,29.67,WNW,302,0.0,0.0,82,0.00,,OVC,0.00,VWS V14.01,2013-08-30 23:30:00,
2013-08-30 18:31:00,72.5,66.7,29.67,WNW,302,0.0,0.0,82,0.00,,OVC,0.00,VWS V14.01,2013-08-30 23:31:00,
2013-08-30 18:32:00,72.7,66.9,29.67,WNW,302,0.0,0.0,82,0.00,,OVC,0.00,VWS V14.01,2013-08-30 23:32:00,
2013-08-30 18:33:00,73.0,67.2,29.70,WNW,302,0.0,0.0,82,0.00,,---,0.00,VWS V14.01,2013-08-30 23:33:00,
2013-08-30 18:34:00,72.7,66.9,29.67,WNW,302,0.0,0.0,82,0.00,,OVC,0.00,VWS V14.01,2013-08-30 23:34:00,
2013-08-30 18:35:00,72.7,66.9,29.67,WNW,302,0.0,0.0,82,0.00,,OVC,0.00,VWS V14.01,2013-08-30 23:35:00,
2013-08-30 18:36:00,72.5,66.7,29.67,WNW,302,0.0,0.0,82,0.00,,OVC,0.00,VWS V14.01,2013-08-30 23:36:00,
2013-08-30 18:37:00,72.5,66.7,29.67,WNW,302,0.0,0.0,82,0.00,,OVC,0.00,VWS V14.01,2013-08-30 23:37:00,
2013-08-30 18:38:00,73.2,67.8,29.70,WNW,302,0.0,0.0,83,0.00,,---,0.00,VWS V14.01,2013-08-30 23:38:00,
2013-08-30 18:39:00,72.7,66.9,29.67,WNW,302,0.0,0.0,82,0.00,,OVC,0.00,VWS V14.01,2013-08-30 23:39:00,
2013-08-30 18:40:00,72.7,66.9,29.67,WNW,302,0.0,0.0,82,0.00,,OVC,0.00,VWS V14.01,2013-08-30 23:40:00,
2013-08-30 18:41:00,72.7,66.9,29.67,WNW,302,0.0,0.0,82,0.00,,OVC,0.00,VWS V14.01,2013-08-30 23:41:00,
2013-08-30 18:43:00,73.2,67.8,29.70,WNW,302,0.0,0.0,83,0.00,,---,0.00,VWS V14.01,2013-08-30 23:43:00,
2013-08-30 18:44:00,72.9,67.1,29.67,WNW,302,0.0,0.0,82,0.00,,OVC,0.00,VWS V14.01,2013-08-30 23:44:00,
2013-08-30 18:45:00,72.7,66.9,29.67,WNW,302,0.0,0.0,82,0.00,,OVC,0.00,VWS V14.01,2013-08-30 23:45:00,
2013-08-30 18:46:00,72.7,66.9,29.67,WNW,302,0.0,0.0,82,0.00,,OVC,0.00,VWS V14.01,2013-08-30 23:46:00,
2013-08-30 18:47:00,72.9,67.1,29.67,WNW,302,0.0,0.0,82,0.00,,OVC,0.00,VWS V14.01,2013-08-30 23:47:00,
2013-08-30 18:48:00,73.0,67.2,29.70,WNW,302,0.0,0.0,82,0.00,,---,0.00,VWS V14.01,2013-08-30 23:48:00,
2013-08-30 18:49:00,72.9,67.1,29.67,WNW,302,0.0,0.0,82,0.00,,OVC,0.00,VWS V14.01,2013-08-30 23:49:00,
2013-08-30 18:50:00,72.9,67.1,29.67,WNW,302,0.0,0.0,82,0.00,,OVC,0.00,VWS V14.01,2013-08-30 23:50:00,
2013-08-30 18:51:00,72.7,66.9,29.70,WNW,302,0.0,0.0,82,0.00,,OVC,0.00,VWS V14.01,2013-08-30 23:51:00,
2013-08-30 18:52:00,72.7,66.9,29.70,WNW,302,0.0,0.0,82,0.00,,OVC,0.00,VWS V14.01,2013-08-30 23:52:00,
2013-08-30 18:53:00,73.2,67.8,29.73,WNW,302,0.0,0.0,83,0.00,,---,0.00,VWS V14.01,2013-08-30 23:53:00,
2013-08-30 18:54:00,72.7,66.9,29.70,WNW,302,0.0,0.0,82,0.00,,OVC,0.00,VWS V14.01,2013-08-30 23:54:00,
2013-08-30 18:55:00,72.7,66.9,29.70,WNW,302,0.0,0.0,82,0.00,,OVC,0.00,VWS V14.01,2013-08-30 23:55:00,
2013-08-30 18:56:00,72.5,66.7,29.70,WNW,302,0.0,0.0,82,0.00,,OVC,0.00,VWS V14.01,2013-08-30 23:56:00,
2013-08-30 18:57:00,72.5,66.7,29.70,WNW,302,0.0,0.0,82,0.00,,OVC,0.00,VWS V14.01,2013-08-30 23:57:00,
2013-08-30 18:58:00,73.0,67.6,29.73,WNW,302,0.0,0.0,83,0.00,,---,0.00,VWS V14.01,2013-08-30 23:58:00,
2013-08-30 18:59:00,72.5,66.7,29.70,WNW,302,0.0,0.0,82,0.00,,OVC,0.00,VWS V14.01,2013-08-30 23:59:00,
2013-08-30 19:00:00,72.7,66.9,29.70,WNW,302,0.0,0.0,82,0.00,,OVC,0.00,VWS V14.01,2013-08-31 00:00:00,
2013-08-30 19:01:00,72.7,66.9,29.70,WNW,302,0.0,0.0,82,0.00,,OVC,0.00,VWS V14.01,2013-08-31 00:01:00,
2013-08-30 19:02:00,72.9,67.1,29.70,WNW,302,0.0,0.0,82,0.00,,OVC,0.00,VWS V14.01,2013-08-31 00:02:00,
2013-08-30 19:03:00,72.9,67.4,29.73,WNW,302,0.0,0.0,83,0.00,,---,0.00,VWS V14.01,2013-08-31 00:03:00,
2013-08-30 19:04:00,72.7,66.9,29.70,WNW,302,0.0,0.0,82,0.00,,OVC,0.00,VWS V14.01,2013-08-31 00:04:00,
2013-08-30 19:05:00,72.7,66.9,29.70,WNW,302,0.0,0.0,82,0.00,,OVC,0.00,VWS V14.01,2013-08-31 00:05:00,
2013-08-30 19:06:00,72.9,67.1,29.70,WNW,302,0.0,0.0,82,0.00,,OVC,0.00,VWS V14.01,2013-08-31 00:06:00,
2013-08-30 19:07:00,72.9,67.1,29.70,WNW,302,0.0,0.0,82,0.00,,OVC,0.00,VWS V14.01,2013-08-31 00:07:00,
2013-08-30 19:08:00,73.0,67.6,29.73,WNW,302,0.0,0.0,83,0.00,,---,0.00,VWS V14.01,2013-08-31 00:08:00,
2013-08-30 19:09:00,72.9,67.1,29.70,WNW,302,0.0,0.0,82,0.00,,OVC,0.00,VWS V14.01,2013-08-31 00:09:00,
2013-08-30 19:10:00,72.9,67.1,29.70,WNW,302,0.0,0.0,82,0.00,,OVC,0.00,VWS V14.01,2013-08-31 00:10:00,
2013-08-30 19:11:00,72.9,67.1,29.70,WNW,302,0.0,0.0,82,0.00,,OVC,0.00,VWS V14.01,2013-08-31 00:11:00,
2013-08-30 19:12:00,72.9,67.1,29.70,WNW,302,0.0,0.0,82,0.00,,OVC,0.00,VWS V14.01,2013-08-31 00:12:00,
2013-08-30 19:13:00,73.0,67.6,29.73,WNW,302,0.0,0.0,83,0.00,,---,0.00,VWS V14.01,2013-08-31 00:13:00,
2013-08-30 19:14:00,73.0,67.2,29.70,WNW,302,0.0,0.0,82,0.00,,OVC,0.00,VWS V14.01,2013-08-31 00:14:00,
2013-08-30 19:15:00,73.0,67.2,29.70,WNW,302,0.0,0.0,82,0.00,,OVC,0.00,VWS V14.01,2013-08-31 00:15:00,
2013-08-30 19:16:00,73.0,67.2,29.70,WNW,302,0.0,0.0,82,0.00,,OVC,0.00,VWS V14.01,2013-08-31 00:16:00,
2013-08-30 19:17:00,73.0,67.2,29.70,WNW,302,0.0,0.0,82,0.00,,OVC,0.00,VWS V14.01,2013-08-31 00:17:00,
2013-08-30 19:18:00,73.0,67.6,29.73,WNW,302,0.0,0.0,83,0.00,,---,0.00,VWS V14.01,2013-08-31 00:18:00,
2013-08-30 19:19:00,72.9,67.1,29.70,WNW,302,0.0,0.0,82,0.00,,OVC,0.00,VWS V14.01,2013-08-31 00:19:00,
2013-08-30 19:20:00,72.9,67.1,29.70,WNW,302,0.0,0.0,82,0.00,,OVC,0.00,VWS V14.01,2013-08-31 00:20:00,
2013-08-30 19:21:00,72.9,67.1,29.70,WNW,302,0.0,0.0,82,0.00,,OVC,0.00,VWS V14.01,2013-08-31 00:21:00,
2013-08-30 19:22:00,72.9,67.1,29.70,WNW,302,0.0,0.0,82,0.00,,OVC,0.00,VWS V14.01,2013-08-31 00:22:00,
2013-08-30 19:23:00,73.0,67.6,29.73,WNW,302,0.0,0.0,83,0.00,,---,0.00,VWS V14.01,2013-08-31 00:23:00,
2013-08-30 19:24:00,72.9,67.1,29.70,WNW,302,0.0,0.0,82,0.00,,OVC,0.00,VWS V14.01,2013-08-31 00:24:00,
2013-08-30 19:25:00,72.9,67.1,29.70,WNW,302,0.0,0.0,82,0.00,,OVC,0.00,VWS V14.01,2013-08-31 00:25:00,
2013-08-30 19:26:00,72.9,67.1,29.70,WNW,302,0.0,0.0,82,0.00,,OVC,0.00,VWS V14.01,2013-08-31 00:26:00,
2013-08-30 19:27:00,72.9,67.1,29.70,WNW,302,0.0,0.0,82,0.00,,OVC,0.00,VWS V14.01,2013-08-31 00:27:00,
2013-08-30 19:28:00,72.9,67.4,29.73,WNW,302,0.0,0.0,83,0.00,,---,0.00,VWS V14.01,2013-08-31 00:28:00,
2013-08-30 19:29:00,72.9,67.1,29.70,WNW,302,0.0,0.0,82,0.00,,OVC,0.00,VWS V14.01,2013-08-31 00:29:00,
2013-08-30 19:30:00,73.0,67.2,29.70,WNW,302,0.0,0.0,82,0.00,,OVC,0.00,VWS V14.01,2013-08-31 00:30:00,
2013-08-30 19:31:00,73.0,67.2,29.70,WNW,302,0.0,0.0,82,0.00,,OVC,0.00,VWS V14.01,2013-08-31 00:31:00,
2013-08-30 19:32:00,73.0,67.2,29.70,WNW,302,0.0,0.0,82,0.00,,OVC,0.00,VWS V14.01,2013-08-31 00:32:00,
2013-08-30 19:33:00,72.9,67.4,29.73,WNW,302,0.0,0.0,83,0.00,,---,0.00,VWS V14.01,2013-08-31 00:33:00,
2013-08-30 19:34:00,73.0,67.2,29.70,WNW,302,0.0,0.0,82,0.00,,OVC,0.00,VWS V14.01,2013-08-31 00:34:00,
2013-08-30 19:35:00,73.2,67.4,29.70,WNW,302,0.0,0.0,82,0.00,,OVC,0.00,VWS V14.01,2013-08-31 00:35:00,
2013-08-30 19:36:00,73.2,67.8,29.70,WNW,302,0.0,0.0,83,0.00,,OVC,0.00,VWS V14.01,2013-08-31 00:36:00,
2013-08-30 19:37:00,73.2,67.8,29.70,WNW,302,0.0,0.0,83,0.00,,OVC,0.00,VWS V14.01,2013-08-31 00:37:00,
2013-08-30 19:38:00,72.5,67.1,29.73,NNW,346,0.0,0.0,83,0.00,,---,0.00,VWS V14.01,2013-08-31 00:38:00,
2013-08-30 19:39:00,73.2,67.8,29.70,WNW,302,0.0,0.0,83,0.00,,OVC,0.00,VWS V14.01,2013-08-31 00:39:00,
2013-08-30 19:40:00,73.2,67.8,29.70,WNW,302,0.0,0.0,83,0.00,,OVC,0.00,VWS V14.01,2013-08-31 00:40:00,
2013-08-30 19:41:00,73.4,67.6,29.70,WNW,302,0.0,0.0,82,0.00,,OVC,0.00,VWS V14.01,2013-08-31 00:41:00,
2013-08-30 19:42:00,73.2,67.8,29.70,WNW,302,0.0,0.0,83,0.00,,OVC,0.00,VWS V14.01,2013-08-31 00:42:00,
2013-08-30 19:43:00,72.7,67.2,29.73,NNW,346,0.0,0.0,83,0.00,,---,0.00,VWS V14.01,2013-08-31 00:43:00,
2013-08-30 19:44:00,73.2,67.8,29.70,WNW,302,0.0,0.0,83,0.00,,OVC,0.00,VWS V14.01,2013-08-31 00:44:00,
2013-08-30 19:45:00,73.0,67.2,29.70,WNW,302,0.0,0.0,82,0.00,,OVC,0.00,VWS V14.01,2013-08-31 00:45:00,
2013-08-30 19:46:00,73.0,67.6,29.70,WNW,302,0.0,0.0,83,0.00,,OVC,0.00,VWS V14.01,2013-08-31 00:46:00,
2013-08-30 19:47:00,73.0,67.6,29.70,WNW,302,0.0,0.0,83,0.00,,OVC,0.00,VWS V14.01,2013-08-31 00:47:00,
2013-08-30 19:48:00,72.5,67.1,29.73,NNW,346,0.0,0.0,83,0.00,,---,0.00,VWS V14.01,2013-08-31 00:48:00,
2013-08-30 19:49:00,73.0,67.2,29.70,WNW,302,0.0,0.0,82,0.00,,OVC,0.00,VWS V14.01,2013-08-31 00:49:00,
2013-08-30 19:50:00,73.0,67.6,29.70,WNW,302,0.0,0.0,83,0.00,,OVC,0.00,VWS V14.01,2013-08-31 00:50:00,
2013-08-30 19:51:00,73.0,67.6,29.73,WNW,302,0.0,0.0,83,0.00,,OVC,0.00,VWS V14.01,2013-08-31 00:51:00,
2013-08-30 19:52:00,73.2,67.8,29.73,WNW,302,0.0,0.0,83,0.00,,OVC,0.00,VWS V14.01,2013-08-31 00:52:00,
2013-08-30 19:53:00,72.3,66.9,29.76,NNW,346,0.0,0.0,83,0.00,,---,0.00,VWS V14.01,2013-08-31 00:53:00,
2013-08-30 19:54:00,73.0,67.6,29.73,WNW,302,0.0,0.0,83,0.00,,OVC,0.00,VWS V14.01,2013-08-31 00:54:00,
2013-08-30 19:55:00,73.0,67.6,29.73,WNW,302,0.0,0.0,83,0.00,,OVC,0.00,VWS V14.01,2013-08-31 00:55:00,
2013-08-30 19:56:00,73.0,67.6,29.73,WNW,302,0.0,0.0,83,0.00,,OVC,0.00,VWS V14.01,2013-08-31 00:56:00,
2013-08-30 19:57:00,73.0,67.6,29.73,WNW,302,0.0,0.0,83,0.00,,OVC,0.00,VWS V14.01,2013-08-31 00:57:00,
2013-08-30 19:58:00,72.1,66.7,29.76,NE,42,0.0,0.0,83,0.00,,---,0.00,VWS V14.01,2013-08-31 00:58:00,
2013-08-30 19:59:00,73.0,67.6,29.73,WNW,302,0.0,0.0,83,0.00,,OVC,0.00,VWS V14.01,2013-08-31 00:59:00,
2013-08-30 20:00:00,73.0,67.6,29.73,WNW,302,0.0,0.0,83,0.00,,OVC,0.00,VWS V14.01,2013-08-31 01:00:00,
2013-08-30 20:01:00,72.9,67.4,29.73,WNW,302,0.0,0.0,83,0.00,,OVC,0.00,VWS V14.01,2013-08-31 01:01:00,
2013-08-30 20:02:00,72.9,67.4,29.73,WNW,302,0.0,0.0,83,0.00,,OVC,0.00,VWS V14.01,2013-08-31 01:02:00,
2013-08-30 20:03:00,72.1,66.7,29.76,NE,42,0.0,0.0,83,0.00,,---,0.00,VWS V14.01,2013-08-31 01:03:00,
2013-08-30 20:04:00,72.9,67.4,29.73,WNW,302,0.0,0.0,83,0.00,,OVC,0.00,VWS V14.01,2013-08-31 01:04:00,
2013-08-30 20:05:00,73.0,67.6,29.73,WNW,302,0.0,0.0,83,0.00,,OVC,0.00,VWS V14.01,2013-08-31 01:05:00,
2013-08-30 20:06:00,73.0,67.6,29.73,WNW,302,0.0,0.0,83,0.00,,OVC,0.00,VWS V14.01,2013-08-31 01:06:00,
2013-08-30 20:07:00,73.0,67.6,29.73,WNW,302,0.0,0.0,83,0.00,,OVC,0.00,VWS V14.01,2013-08-31 01:07:00,
2013-08-30 20:08:00,72.1,66.3,29.76,NE,42,0.0,0.0,82,0.00,,---,0.00,VWS V14.01,2013-08-31 01:08:00,
2013-08-30 20:09:00,73.0,67.6,29.73,WNW,302,0.0,0.0,83,0.00,,OVC,0.00,VWS V14.01,2013-08-31 01:09:00,
2013-08-30 20:10:00,73.0,67.6,29.73,WNW,302,0.0,0.0,83,0.00,,OVC,0.00,VWS V14.01,2013-08-31 01:10:00,
2013-08-30 20:11:00,73.0,67.6,29.73,WNW,302,0.0,0.0,83,0.00,,OVC,0.00,VWS V14.01,2013-08-31 01:11:00,
2013-08-30 20:12:00,73.0,67.6,29.73,WNW,302,0.0,0.0,83,0.00,,OVC,0.00,VWS V14.01,2013-08-31 01:12:00,
2013-08-30 20:13:00,72.0,66.2,29.76,NE,42,0.0,0.0,82,0.00,,---,0.00,VWS V14.01,2013-08-31 01:13:00,
2013-08-30 20:14:00,73.0,67.6,29.73,WNW,302,0.0,0.0,83,0.00,,OVC,0.00,VWS V14.01,2013-08-31 01:14:00,
2013-08-30 20:15:00,73.0,67.6,29.73,WNW,302,0.0,0.0,83,0.00,,OVC,0.00,VWS V14.01,2013-08-31 01:15:00,
2013-08-30 20:16:00,73.0,67.6,29.73,WNW,302,0.0,0.0,83,0.00,,OVC,0.00,VWS V14.01,2013-08-31 01:16:00,
2013-08-30 20:17:00,73.0,67.6,29.73,WNW,302,0.0,0.0,83,0.00,,OVC,0.00,VWS V14.01,2013-08-31 01:17:00,
2013-08-30 20:18:00,72.0,66.2,29.76,ENE,58,0.0,0.0,82,0.00,,---,0.00,VWS V14.01,2013-08-31 01:18:00,
2013-08-30 20:19:00,73.0,67.6,29.73,WNW,302,0.0,0.0,83,0.00,,OVC,0.00,VWS V14.01,2013-08-31 01:19:00,
2013-08-30 20:20:00,73.0,67.6,29.73,WNW,302,0.0,0.0,83,0.00,,OVC,0.00,VWS V14.01,2013-08-31 01:20:00,
2013-08-30 20:21:00,73.0,67.6,29.73,WNW,302,0.0,0.0,83,0.00,,OVC,0.00,VWS V14.01,2013-08-31 01:21:00,
2013-08-30 20:22:00,73.0,67.6,29.73,WNW,302,0.0,0.0,83,0.00,,OVC,0.00,VWS V14.01,2013-08-31 01:22:00,
2013-08-30 20:23:00,71.8,66.0,29.76,ENE,58,0.0,0.0,82,0.00,,---,0.00,VWS V14.01,2013-08-31 01:23:00,
2013-08-30 20:24:00,73.0,67.6,29.73,WNW,302,0.0,0.0,83,0.00,,OVC,0.00,VWS V14.01,2013-08-31 01:24:00,
2013-08-30 20:25:00,73.0,67.6,29.73,WNW,302,0.0,0.0,83,0.00,,OVC,0.00,VWS V14.01,2013-08-31 01:25:00,
2013-08-30 20:26:00,73.0,67.6,29.73,WNW,302,0.0,0.0,83,0.00,,OVC,0.00,VWS V14.01,2013-08-31 01:26:00,
2013-08-30 20:27:00,73.0,67.6,29.73,WNW,302,0.0,0.0,83,0.00,,OVC,0.00,VWS V14.01,2013-08-31 01:27:00,
2013-08-30 20:28:00,71.8,66.0,29.76,ENE,58,0.0,0.0,82,0.00,,---,0.00,VWS V14.01,2013-08-31 01:28:00,
2013-08-30 20:29:00,72.9,67.4,29.73,WNW,302,0.0,0.0,83,0.00,,OVC,0.00,VWS V14.01,2013-08-31 01:29:00,
2013-08-30 20:30:00,72.9,67.4,29.73,WNW,302,0.0,0.0,83,0.00,,OVC,0.00,VWS V14.01,2013-08-31 01:30:00,
2013-08-30 20:31:00,72.9,67.4,29.73,WNW,302,0.0,0.0,83,0.00,,OVC,0.00,VWS V14.01,2013-08-31 01:31:00,
2013-08-30 20:32:00,72.9,67.4,29.73,WNW,302,0.0,0.0,83,0.00,,OVC,0.00,VWS V14.01,2013-08-31 01:32:00,
2013-08-30 20:33:00,71.8,66.0,29.76,ENE,58,0.0,0.0,82,0.00,,---,0.00,VWS V14.01,2013-08-31 01:33:00,
2013-08-30 20:34:00,72.9,67.4,29.73,WNW,302,0.0,0.0,83,0.00,,OVC,0.00,VWS V14.01,2013-08-31 01:34:00,
2013-08-30 20:35:00,72.9,67.4,29.73,WNW,302,0.0,0.0,83,0.00,,OVC,0.00,VWS V14.01,2013-08-31 01:35:00,
2013-08-30 20:36:00,72.9,67.4,29.73,NNW,346,0.0,0.0,83,0.00,,OVC,0.00,VWS V14.01,2013-08-31 01:36:00,
2013-08-30 20:37:00,72.7,67.2,29.73,NNW,346,0.0,0.0,83,0.00,,OVC,0.00,VWS V14.01,2013-08-31 01:37:00,
2013-08-30 20:38:00,71.8,66.0,29.76,ENE,58,0.0,0.0,82,0.00,,---,0.00,VWS V14.01,2013-08-31 01:38:00,
2013-08-30 20:39:00,72.5,67.1,29.73,NNW,346,0.0,0.0,83,0.00,,OVC,0.00,VWS V14.01,2013-08-31 01:39:00,
2013-08-30 20:40:00,72.7,67.2,29.73,NNW,346,0.0,0.0,83,0.00,,OVC,0.00,VWS V14.01,2013-08-31 01:40:00,
2013-08-30 20:41:00,72.7,67.2,29.73,NNW,346,0.0,0.0,83,0.00,,OVC,0.00,VWS V14.01,2013-08-31 01:41:00,
2013-08-30 20:42:00,72.7,67.2,29.73,NNW,346,0.0,0.0,83,0.00,,OVC,0.00,VWS V14.01,2013-08-31 01:42:00,
2013-08-30 20:43:00,71.8,66.0,29.76,ENE,58,0.0,0.0,82,0.00,,---,0.00,VWS V14.01,2013-08-31 01:43:00,
2013-08-30 20:44:00,72.5,67.1,29.73,NNW,346,0.0,0.0,83,0.00,,OVC,0.00,VWS V14.01,2013-08-31 01:44:00,
2013-08-30 20:45:00,72.5,67.1,29.73,NNW,346,0.0,0.0,83,0.00,,OVC,0.00,VWS V14.01,2013-08-31 01:45:00,
2013-08-30 20:46:00,72.5,67.1,29.73,NNW,346,0.0,0.0,83,0.00,,OVC,0.00,VWS V14.01,2013-08-31 01:46:00,
2013-08-30 20:47:00,72.5,67.1,29.73,NNW,346,0.0,0.0,83,0.00,,OVC,0.00,VWS V14.01,2013-08-31 01:47:00,
2013-08-30 20:48:00,71.8,66.0,29.76,ENE,58,0.0,0.0,82,0.00,,---,0.00,VWS V14.01,2013-08-31 01:48:00,
2013-08-30 20:49:00,72.5,67.1,29.73,NNW,346,0.0,0.0,83,0.00,,OVC,0.00,VWS V14.01,2013-08-31 01:49:00,
2013-08-30 20:50:00,72.5,67.1,29.73,NNW,346,0.0,0.0,83,0.00,,OVC,0.00,VWS V14.01,2013-08-31 01:50:00,
2013-08-30 20:51:00,72.3,66.9,29.76,NNW,346,0.0,0.0,83,0.00,,OVC,0.00,VWS V14.01,2013-08-31 01:51:00,
2013-08-30 20:52:00,72.3,66.9,29.76,NNW,346,0.0,0.0,83,0.00,,OVC,0.00,VWS V14.01,2013-08-31 01:52:00,
2013-08-30 20:53:00,71.4,66.0,29.76,ENE,58,0.0,0.0,83,0.00,,---,0.00,VWS V14.01,2013-08-31 01:53:00,
2013-08-30 20:54:00,72.3,66.9,29.76,NNW,346,0.0,0.0,83,0.00,,OVC,0.00,VWS V14.01,2013-08-31 01:54:00,
2013-08-30 20:55:00,72.3,66.9,29.76,NNW,346,0.0,0.0,83,0.00,,OVC,0.00,VWS V14.01,2013-08-31 01:55:00,
2013-08-30 20:56:00,72.3,66.9,29.76,NE,42,0.0,0.0,83,0.00,,OVC,0.00,VWS V14.01,2013-08-31 01:56:00,
2013-08-30 20:57:00,72.1,66.7,29.76,NE,42,0.0,0.0,83,0.00,,OVC,0.00,VWS V14.01,2013-08-31 01:57:00,
2013-08-30 20:58:00,71.4,65.6,29.76,ENE,67,0.0,0.0,82,0.00,,---,0.00,VWS V14.01,2013-08-31 01:58:00,
2013-08-30 20:59:00,72.1,66.7,29.76,NE,42,0.0,0.0,83,0.00,,OVC,0.00,VWS V14.01,2013-08-31 01:59:00,
2013-08-30 21:00:00,72.1,66.7,29.76,NE,42,0.0,0.0,83,0.00,,OVC,0.00,VWS V14.01,2013-08-31 02:00:00,
2013-08-30 21:01:00,72.1,66.7,29.76,NE,42,0.0,0.0,83,0.00,,OVC,0.00,VWS V14.01,2013-08-31 02:01:00,
2013-08-30 21:02:00,72.1,66.7,29.76,NE,42,0.0,0.0,83,0.00,,OVC,0.00,VWS V14.01,2013-08-31 02:02:00,
2013-08-30 21:03:00,71.2,65.5,29.76,ENE,75,0.0,0.0,82,0.00,,---,0.00,VWS V14.01,2013-08-31 02:03:00,
2013-08-30 21:04:00,72.1,66.7,29.76,NE,42,0.0,0.0,83,0.00,,OVC,0.00,VWS V14.01,2013-08-31 02:04:00,
2013-08-30 21:05:00,72.1,66.7,29.76,NE,42,0.0,0.0,83,0.00,,OVC,0.00,VWS V14.01,2013-08-31 02:05:00,
2013-08-30 21:06:00,72.1,66.7,29.76,NE,42,0.0,0.0,83,0.00,,OVC,0.00,VWS V14.01,2013-08-31 02:06:00,
2013-08-30 21:07:00,72.1,66.3,29.76,NE,42,0.0,0.0,82,0.00,,OVC,0.00,VWS V14.01,2013-08-31 02:07:00,
2013-08-30 21:08:00,71.2,65.5,29.76,ENE,75,0.0,0.0,82,0.00,,---,0.00,VWS V14.01,2013-08-31 02:08:00,
2013-08-30 21:09:00,72.1,66.3,29.76,NE,42,0.0,0.0,82,0.00,,OVC,0.00,VWS V14.01,2013-08-31 02:09:00,
2013-08-30 21:10:00,72.1,66.3,29.76,NE,42,0.0,0.0,82,0.00,,OVC,0.00,VWS V14.01,2013-08-31 02:10:00,
2013-08-30 21:11:00,72.1,66.3,29.76,NE,42,0.0,0.0,82,0.00,,OVC,0.00,VWS V14.01,2013-08-31 02:11:00,
2013-08-30 21:12:00,72.0,66.2,29.76,NE,42,0.0,0.0,82,0.00,,OVC,0.00,VWS V14.01,2013-08-31 02:12:00,
2013-08-30 21:13:00,70.9,65.1,29.76,ENE,75,0.0,0.0,82,0.00,,---,0.00,VWS V14.01,2013-08-31 02:13:00,
2013-08-30 21:14:00,72.0,66.2,29.76,NE,42,0.0,0.0,82,0.00,,OVC,0.00,VWS V14.01,2013-08-31 02:14:00,
2013-08-30 21:15:00,72.0,66.2,29.76,ENE,58,0.0,0.0,82,0.00,,OVC,0.00,VWS V14.01,2013-08-31 02:15:00,
2013-08-30 21:16:00,72.0,66.2,29.76,ENE,58,0.0,0.0,82,0.00,,OVC,0.00,VWS V14.01,2013-08-31 02:16:00,
2013-08-30 21:17:00,72.0,66.2,29.76,ENE,58,0.0,0.0,82,0.00,,OVC,0.00,VWS V14.01,2013-08-31 02:17:00,
2013-08-30 21:18:00,70.7,64.9,29.76,ENE,75,0.0,0.0,82,0.00,,---,0.00,VWS V14.01,2013-08-31 02:18:00,
2013-08-30 21:19:00,72.0,66.2,29.76,ENE,58,0.0,0.0,82,0.00,,OVC,0.00,VWS V14.01,2013-08-31 02:19:00,
2013-08-30 21:20:00,71.8,66.0,29.76,ENE,58,0.0,0.0,82,0.00,,OVC,0.00,VWS V14.01,2013-08-31 02:20:00,
2013-08-30 21:21:00,71.8,66.0,29.76,ENE,58,0.0,0.0,82,0.00,,OVC,0.00,VWS V14.01,2013-08-31 02:21:00,
2013-08-30 21:22:00,71.8,66.0,29.76,ENE,58,0.0,0.0,82,0.00,,OVC,0.00,VWS V14.01,2013-08-31 02:22:00,
2013-08-30 21:23:00,70.7,64.9,29.76,East,95,0.0,0.0,82,0.00,,---,0.00,VWS V14.01,2013-08-31 02:23:00,
2013-08-30 21:24:00,71.8,66.0,29.76,ENE,58,0.0,0.0,82,0.00,,OVC,0.00,VWS V14.01,2013-08-31 02:24:00,
2013-08-30 21:25:00,71.8,66.0,29.76,ENE,58,0.0,0.0,82,0.00,,OVC,0.00,VWS V14.01,2013-08-31 02:25:00,
2013-08-30 21:26:00,71.8,66.0,29.76,ENE,58,0.0,0.0,82,0.00,,OVC,0.00,VWS V14.01,2013-08-31 02:26:00,
2013-08-30 21:27:00,71.8,66.0,29.76,ENE,58,0.0,0.0,82,0.00,,OVC,0.00,VWS V14.01,2013-08-31 02:27:00,
2013-08-30 21:28:00,70.7,64.9,29.76,ESE,104,0.0,0.0,82,0.00,,---,0.00,VWS V14.01,2013-08-31 02:28:00,
2013-08-30 21:29:00,71.8,66.0,29.76,ENE,58,0.0,0.0,82,0.00,,OVC,0.00,VWS V14.01,2013-08-31 02:29:00,
2013-08-30 21:30:00,71.8,66.0,29.76,ENE,58,0.0,0.0,82,0.00,,OVC,0.00,VWS V14.01,2013-08-31 02:30:00,
2013-08-30 21:31:00,71.8,66.0,29.76,ENE,58,0.0,0.0,82,0.00,,OVC,0.00,VWS V14.01,2013-08-31 02:31:00,
2013-08-30 21:32:00,71.8,66.0,29.76,ENE,58,0.0,0.0,82,0.00,,OVC,0.00,VWS V14.01,2013-08-31 02:32:00,
2013-08-30 21:33:00,70.5,64.8,29.76,ESE,104,0.0,0.0,82,0.00,,---,0.00,VWS V14.01,2013-08-31 02:33:00,
2013-08-30 21:34:00,71.8,66.0,29.76,ENE,58,0.0,0.0,82,0.00,,OVC,0.00,VWS V14.01,2013-08-31 02:34:00,
2013-08-30 21:35:00,71.8,66.0,29.76,ENE,58,0.0,0.0,82,0.00,,OVC,0.00,VWS V14.01,2013-08-31 02:35:00,
2013-08-30 21:36:00,71.8,66.0,29.76,ENE,58,0.0,0.0,82,0.00,,OVC,0.00,VWS V14.01,2013-08-31 02:36:00,
2013-08-30 21:37:00,72.0,66.2,29.76,ENE,58,0.0,0.0,82,0.00,,OVC,0.00,VWS V14.01,2013-08-31 02:37:00,
2013-08-30 21:38:00,70.5,64.8,29.76,ESE,104,0.0,0.0,82,0.00,,---,0.00,VWS V14.01,2013-08-31 02:38:00,
2013-08-30 21:39:00,72.0,66.2,29.76,ENE,58,0.0,0.0,82,0.00,,OVC,0.00,VWS V14.01,2013-08-31 02:39:00,
2013-08-30 21:40:00,71.8,66.0,29.76,ENE,58,0.0,0.0,82,0.00,,OVC,0.00,VWS V14.01,2013-08-31 02:40:00,
2013-08-30 21:41:00,71.8,66.0,29.76,ENE,58,0.0,0.0,82,0.00,,OVC,0.00,VWS V14.01,2013-08-31 02:41:00,
2013-08-30 21:42:00,71.8,66.0,29.76,ENE,58,0.0,0.0,82,0.00,,OVC,0.00,VWS V14.01,2013-08-31 02:42:00,
2013-08-30 21:43:00,70.5,64.8,29.76,ESE,103,0.0,0.0,82,0.00,,---,0.00,VWS V14.01,2013-08-31 02:43:00,
2013-08-30 21:44:00,71.8,66.0,29.76,ENE,58,0.0,0.0,82,0.00,,OVC,0.00,VWS V14.01,2013-08-31 02:44:00,
2013-08-30 21:45:00,71.8,66.0,29.76,ENE,58,0.0,0.0,82,0.00,,OVC,0.00,VWS V14.01,2013-08-31 02:45:00,
2013-08-30 21:46:00,71.8,66.0,29.76,ENE,58,0.0,0.0,82,0.00,,OVC,0.00,VWS V14.01,2013-08-31 02:46:00,
2013-08-30 21:47:00,71.8,66.0,29.76,ENE,58,0.0,0.0,82,0.00,,OVC,0.00,VWS V14.01,2013-08-31 02:47:00,
2013-08-30 21:48:00,70.3,64.6,29.76,ESE,103,0.0,0.0,82,0.00,,---,0.00,VWS V14.01,2013-08-31 02:48:00,
2013-08-30 21:49:00,71.6,65.8,29.76,ENE,58,0.0,0.0,82,0.00,,OVC,0.00,VWS V14.01,2013-08-31 02:49:00,
2013-08-30 21:50:00,71.6,65.8,29.76,NE,55,0.0,0.0,82,0.00,,OVC,0.00,VWS V14.01,2013-08-31 02:50:00,
2013-08-30 21:51:00,71.6,65.8,29.76,NE,55,0.0,0.0,82,0.00,,OVC,0.00,VWS V14.01,2013-08-31 02:51:00,
2013-08-30 21:52:00,71.6,65.8,29.76,NE,55,0.0,0.0,82,0.00,,OVC,0.00,VWS V14.01,2013-08-31 02:52:00,
2013-08-30 21:53:00,70.3,64.6,29.76,NE,42,0.0,0.0,82,0.00,,---,0.00,VWS V14.01,2013-08-31 02:53:00,
2013-08-30 21:54:00,71.4,66.0,29.76,ENE,58,0.0,0.0,83,0.00,,OVC,0.00,VWS V14.01,2013-08-31 02:54:00,
2013-08-30 21:55:00,71.4,66.0,29.76,ENE,58,0.0,0.0,83,0.00,,OVC,0.00,VWS V14.01,2013-08-31 02:55:00,
2013-08-30 21:56:00,71.4,65.6,29.76,ENE,58,0.0,0.0,82,0.00,,OVC,0.00,VWS V14.01,2013-08-31 02:56:00,
2013-08-30 21:57:00,71.4,65.6,29.76,ENE,57,0.0,0.0,82,0.00,,OVC,0.00,VWS V14.01,2013-08-31 02:57:00,
2013-08-30 21:58:00,70.3,64.6,29.76,NE,46,0.0,0.0,82,0.00,,---,0.00,VWS V14.01,2013-08-31 02:58:00,
2013-08-30 21:59:00,71.4,65.6,29.76,ENE,64,0.0,0.0,82,0.00,,OVC,0.00,VWS V14.01,2013-08-31 02:59:00,
2013-08-30 22:00:00,71.4,65.6,29.76,ENE,64,0.0,0.0,82,0.00,,OVC,0.00,VWS V14.01,2013-08-31 03:00:00,
2013-08-30 22:01:00,71.2,65.5,29.76,ENE,64,0.0,0.0,82,0.00,,OVC,0.00,VWS V14.01,2013-08-31 03:01:00,
2013-08-30 22:02:00,71.2,65.5,29.76,East,88,0.0,0.0,82,0.00,,OVC,0.00,VWS V14.01,2013-08-31 03:02:00,
2013-08-30 22:03:00,70.2,64.4,29.76,NE,46,0.0,0.0,82,0.00,,---,0.00,VWS V14.01,2013-08-31 03:03:00,
2013-08-30 22:04:00,71.2,65.5,29.76,ENE,75,0.0,0.0,82,0.00,,OVC,0.00,VWS V14.01,2013-08-31 03:04:00,
2013-08-30 22:05:00,71.2,65.5,29.76,ENE,75,0.0,0.0,82,0.00,,OVC,0.00,VWS V14.01,2013-08-31 03:05:00,
2013-08-30 22:06:00,71.2,65.5,29.76,ENE,75,0.0,0.0,82,0.00,,OVC,0.00,VWS V14.01,2013-08-31 03:06:00,
2013-08-30 22:07:00,71.2,65.5,29.76,ENE,75,0.0,0.0,82,0.00,,OVC,0.00,VWS V14.01,2013-08-31 03:07:00,
2013-08-30 22:08:00,70.2,64.4,29.76,NE,48,0.0,0.0,82,0.00,,---,0.00,VWS V14.01,2013-08-31 03:08:00,
2013-08-30 22:09:00,71.1,65.3,29.76,ENE,75,0.0,0.0,82,0.00,,OVC,0.00,VWS V14.01,2013-08-31 03:09:00,
2013-08-30 22:10:00,71.1,65.3,29.76,ENE,75,0.0,0.0,82,0.00,,OVC,0.00,VWS V14.01,2013-08-31 03:10:00,
2013-08-30 22:11:00,70.9,65.1,29.76,ENE,75,0.0,0.0,82,0.00,,OVC,0.00,VWS V14.01,2013-08-31 03:11:00,
2013-08-30 22:12:00,70.9,65.1,29.76,ENE,75,0.0,0.0,82,0.00,,OVC,0.00,VWS V14.01,2013-08-31 03:12:00,
2013-08-30 22:13:00,70.0,63.9,29.76,ENE,68,0.0,0.0,81,0.00,,---,0.00,VWS V14.01,2013-08-31 03:13:00,
2013-08-30 22:14:00,70.9,65.1,29.76,ENE,75,0.0,0.0,82,0.00,,OVC,0.00,VWS V14.01,2013-08-31 03:14:00,
2013-08-30 22:15:00,70.7,64.9,29.76,ENE,75,0.0,0.0,82,0.00,,OVC,0.00,VWS V14.01,2013-08-31 03:15:00,
2013-08-30 22:16:00,70.7,64.9,29.76,ENE,75,0.0,0.0,82,0.00,,OVC,0.00,VWS V14.01,2013-08-31 03:16:00,
2013-08-30 22:17:00,70.7,64.9,29.76,ENE,75,0.0,0.0,82,0.00,,OVC,0.00,VWS V14.01,2013-08-31 03:17:00,
2013-08-30 22:18:00,69.8,63.7,29.76,ENE,68,0.0,0.0,81,0.00,,---,0.00,VWS V14.01,2013-08-31 03:18:00,
2013-08-30 22:19:00,70.7,64.9,29.76,ENE,75,0.0,0.0,82,0.00,,OVC,0.00,VWS V14.01,2013-08-31 03:19:00,
2013-08-30 22:20:00,70.7,64.9,29.76,ENE,75,0.0,0.0,82,0.00,,OVC,0.00,VWS V14.01,2013-08-31 03:20:00,
2013-08-30 22:21:00,70.7,64.9,29.76,ENE,75,0.0,0.0,82,0.00,,OVC,0.00,VWS V14.01,2013-08-31 03:21:00,
2013-08-30 22:22:00,70.7,64.9,29.76,ENE,75,0.0,0.0,82,0.00,,OVC,0.00,VWS V14.01,2013-08-31 03:22:00,
2013-08-30 22:23:00,69.6,63.9,29.76,NNE,33,0.0,0.0,82,0.00,,---,0.00,VWS V14.01,2013-08-31 03:23:00,
2013-08-30 22:24:00,70.7,64.9,29.76,East,97,0.0,0.0,82,0.00,,OVC,0.00,VWS V14.01,2013-08-31 03:24:00,
2013-08-30 22:25:00,70.7,64.9,29.76,East,97,0.0,0.0,82,0.00,,OVC,0.00,VWS V14.01,2013-08-31 03:25:00,
2013-08-30 22:26:00,70.7,64.9,29.76,NE,50,0.0,0.0,82,0.00,,OVC,0.00,VWS V14.01,2013-08-31 03:26:00,
2013-08-30 22:27:00,70.7,64.9,29.76,ESE,104,0.0,0.0,82,0.00,,OVC,0.00,VWS V14.01,2013-08-31 03:27:00,
2013-08-30 22:28:00,69.6,63.9,29.76,ENE,69,0.0,0.0,82,0.00,,---,0.00,VWS V14.01,2013-08-31 03:28:00,
2013-08-30 22:29:00,70.7,64.9,29.76,ESE,104,0.0,0.0,82,0.00,,OVC,0.00,VWS V14.01,2013-08-31 03:29:00,
2013-08-30 22:30:00,70.7,64.9,29.76,ESE,104,0.0,0.0,82,0.00,,OVC,0.00,VWS V14.01,2013-08-31 03:30:00,
2013-08-30 22:31:00,70.7,64.9,29.76,ESE,104,0.0,0.0,82,0.00,,OVC,0.00,VWS V14.01,2013-08-31 03:31:00,
2013-08-30 22:32:00,70.5,64.8,29.76,ESE,104,0.0,0.0,82,0.00,,OVC,0.00,VWS V14.01,2013-08-31 03:32:00,
2013-08-30 22:33:00,69.6,63.5,29.76,ENE,69,0.0,0.0,81,0.00,,---,0.00,VWS V14.01,2013-08-31 03:33:00,
2013-08-30 22:34:00,70.5,64.8,29.76,ESE,104,0.0,0.0,82,0.00,,OVC,0.00,VWS V14.01,2013-08-31 03:34:00,
2013-08-30 22:35:00,70.5,64.8,29.76,ESE,104,0.0,0.0,82,0.00,,OVC,0.00,VWS V14.01,2013-08-31 03:35:00,
2013-08-30 22:36:00,70.5,64.8,29.76,ESE,104,0.0,0.0,82,0.00,,OVC,0.00,VWS V14.01,2013-08-31 03:36:00,
2013-08-30 22:37:00,70.5,64.8,29.76,ESE,104,0.0,0.0,82,0.00,,OVC,0.00,VWS V14.01,2013-08-31 03:37:00,
2013-08-30 22:38:00,69.6,63.5,29.76,ENE,69,0.0,0.0,81,0.00,,---,0.00,VWS V14.01,2013-08-31 03:38:00,
2013-08-30 22:39:00,70.5,64.8,29.76,ESE,104,0.0,0.0,82,0.00,,OVC,0.00,VWS V14.01,2013-08-31 03:39:00,
2013-08-30 22:40:00,70.5,64.8,29.76,ESE,104,0.0,0.0,82,0.00,,OVC,0.00,VWS V14.01,2013-08-31 03:40:00,
2013-08-30 22:41:00,70.5,64.8,29.76,ESE,103,0.0,0.0,82,0.00,,OVC,0.00,VWS V14.01,2013-08-31 03:41:00,
2013-08-30 22:42:00,70.5,64.8,29.76,ESE,103,0.0,0.0,82,0.00,,OVC,0.00,VWS V14.01,2013-08-31 03:42:00,
2013-08-30 22:43:00,69.4,63.4,29.76,East,91,0.0,0.0,81,0.00,,---,0.00,VWS V14.01,2013-08-31 03:43:00,
2013-08-30 22:44:00,70.5,64.8,29.76,ESE,103,0.0,0.0,82,0.00,,OVC,0.00,VWS V14.01,2013-08-31 03:44:00,
2013-08-30 22:45:00,70.5,64.8,29.76,ESE,103,0.0,0.0,82,0.00,,OVC,0.00,VWS V14.01,2013-08-31 03:45:00,
2013-08-30 22:46:00,70.5,64.8,29.76,ESE,103,0.0,0.0,82,0.00,,OVC,0.00,VWS V14.01,2013-08-31 03:46:00,
2013-08-30 22:47:00,70.3,64.6,29.76,ESE,103,0.0,0.0,82,0.00,,OVC,0.00,VWS V14.01,2013-08-31 03:47:00,
2013-08-30 22:48:00,69.4,63.4,29.76,East,100,0.0,0.0,81,0.00,,---,0.00,VWS V14.01,2013-08-31 03:48:00,
2013-08-30 22:49:00,70.3,64.6,29.76,ESE,103,0.0,0.0,82,0.00,,OVC,0.00,VWS V14.01,2013-08-31 03:49:00,
2013-08-30 22:50:00,70.3,64.6,29.76,ESE,104,0.0,0.0,82,0.00,,OVC,0.00,VWS V14.01,2013-08-31 03:50:00,
2013-08-30 22:51:00,70.3,64.6,29.76,ESE,103,0.0,0.0,82,0.00,,OVC,0.00,VWS V14.01,2013-08-31 03:51:00,
2013-08-30 22:52:00,70.3,64.6,29.76,ESE,103,0.0,0.0,82,0.00,,OVC,0.00,VWS V14.01,2013-08-31 03:52:00,
2013-08-30 22:53:00,69.4,63.4,29.76,East,100,0.0,0.0,81,0.00,,---,0.00,VWS V14.01,2013-08-31 03:53:00,
2013-08-30 22:54:00,70.3,64.6,29.76,NE,42,0.0,0.0,82,0.00,,OVC,0.00,VWS V14.01,2013-08-31 03:54:00,
2013-08-30 22:55:00,70.3,64.6,29.76,NE,42,0.0,0.0,82,0.00,,OVC,0.00,VWS V14.01,2013-08-31 03:55:00,
2013-08-30 22:56:00,70.3,64.6,29.76,NE,42,0.0,0.0,82,0.00,,OVC,0.00,VWS V14.01,2013-08-31 03:56:00,
2013-08-30 22:57:00,70.3,64.6,29.76,NE,42,0.0,0.0,82,0.00,,OVC,0.00,VWS V14.01,2013-08-31 03:57:00,
2013-08-30 22:58:00,69.3,63.2,29.76,East,100,0.0,0.0,81,0.00,,---,0.00,VWS V14.01,2013-08-31 03:58:00,
2013-08-30 22:59:00,70.3,64.6,29.76,NE,46,0.0,0.0,82,0.00,,OVC,0.00,VWS V14.01,2013-08-31 03:59:00,
2013-08-30 23:00:00,70.3,64.6,29.76,NE,46,0.0,0.0,82,0.00,,OVC,0.00,VWS V14.01,2013-08-31 04:00:00,
2013-08-30 23:01:00,69.3,63.2,29.76,East,100,0.0,0.0,81,0.00,,---,0.00,VWS V14.01,2013-08-31 04:01:00,
2013-08-30 23:02:00,70.2,64.4,29.76,NE,46,0.0,0.0,82,0.00,,OVC,0.00,VWS V14.01,2013-08-31 04:02:00,
2013-08-30 23:03:00,70.2,64.4,29.76,NE,46,0.0,0.0,82,0.00,,OVC,0.00,VWS V14.01,2013-08-31 04:03:00,
2013-08-30 23:04:00,70.2,64.4,29.76,NE,46,0.0,0.0,82,0.00,,OVC,0.00,VWS V14.01,2013-08-31 04:04:00,
2013-08-30 23:05:00,70.2,64.4,29.76,NE,46,0.0,0.0,82,0.00,,OVC,0.00,VWS V14.01,2013-08-31 04:05:00,
2013-08-30 23:06:00,69.1,63.0,29.76,East,84,0.0,0.0,81,0.00,,---,0.00,VWS V14.01,2013-08-31 04:06:00,
2013-08-30 23:07:00,70.2,64.4,29.76,NE,46,0.0,0.0,82,0.00,,OVC,0.00,VWS V14.01,2013-08-31 04:07:00,
2013-08-30 23:08:00,70.2,64.4,29.76,NE,48,0.0,0.0,82,0.00,,OVC,0.00,VWS V14.01,2013-08-31 04:08:00,
2013-08-30 23:09:00,70.2,64.4,29.76,NE,48,0.0,0.0,82,0.00,,OVC,0.00,VWS V14.01,2013-08-31 04:09:00,
2013-08-30 23:10:00,70.0,64.2,29.76,NE,49,0.0,0.0,82,0.00,,OVC,0.00,VWS V14.01,2013-08-31 04:10:00,
2013-08-30 23:11:00,69.3,63.2,29.76,East,84,0.0,0.0,81,0.00,,---,0.00,VWS V14.01,2013-08-31 04:11:00,
2013-08-30 23:12:00,70.0,63.9,29.76,ENE,68,0.0,0.0,81,0.00,,OVC,0.00,VWS V14.01,2013-08-31 04:12:00,
2013-08-30 23:13:00,70.0,63.9,29.76,ENE,68,0.0,0.0,81,0.00,,OVC,0.00,VWS V14.01,2013-08-31 04:13:00,
2013-08-30 23:14:00,70.0,63.9,29.76,ENE,68,0.0,0.0,81,0.00,,OVC,0.00,VWS V14.01,2013-08-31 04:14:00,
2013-08-30 23:15:00,70.0,63.9,29.76,ENE,68,0.0,0.0,81,0.00,,OVC,0.00,VWS V14.01,2013-08-31 04:15:00,
2013-08-30 23:16:00,69.3,63.2,29.76,East,84,0.0,0.0,81,0.00,,---,0.00,VWS V14.01,2013-08-31 04:16:00,
2013-08-30 23:17:00,69.8,63.7,29.76,ENE,68,0.0,0.0,81,0.00,,OVC,0.00,VWS V14.01,2013-08-31 04:17:00,
2013-08-30 23:18:00,69.8,63.7,29.76,ENE,68,0.0,0.0,81,0.00,,OVC,0.00,VWS V14.01,2013-08-31 04:18:00,
2013-08-30 23:19:00,69.8,63.7,29.76,ENE,68,0.0,0.0,81,0.00,,OVC,0.00,VWS V14.01,2013-08-31 04:19:00,
2013-08-30 23:20:00,69.8,63.7,29.76,ENE,68,0.0,0.0,81,0.00,,OVC,0.00,VWS V14.01,2013-08-31 04:20:00,
2013-08-30 23:21:00,68.9,62.8,29.76,East,84,0.0,0.0,81,0.00,,---,0.00,VWS V14.01,2013-08-31 04:21:00,
2013-08-30 23:22:00,69.6,63.9,29.76,ENE,68,0.0,0.0,82,0.00,,OVC,0.00,VWS V14.01,2013-08-31 04:22:00,
2013-08-30 23:23:00,69.6,63.9,29.76,NNE,33,0.0,0.0,82,0.00,,OVC,0.00,VWS V14.01,2013-08-31 04:23:00,
2013-08-30 23:24:00,69.6,63.9,29.76,NNE,33,0.0,0.0,82,0.00,,OVC,0.00,VWS V14.01,2013-08-31 04:24:00,
2013-08-30 23:25:00,69.6,63.9,29.76,NNE,33,0.0,0.0,82,0.00,,OVC,0.00,VWS V14.01,2013-08-31 04:25:00,
2013-08-30 23:26:00,68.9,62.8,29.76,East,84,0.0,0.0,81,0.00,,---,0.00,VWS V14.01,2013-08-31 04:26:00,
2013-08-30 23:27:00,69.6,63.9,29.76,ENE,75,0.0,0.0,82,0.00,,OVC,0.00,VWS V14.01,2013-08-31 04:27:00,
2013-08-30 23:28:00,69.6,63.9,29.76,ENE,69,0.0,0.0,82,0.00,,OVC,0.00,VWS V14.01,2013-08-31 04:28:00,
2013-08-30 23:29:00,69.6,63.9,29.76,ENE,69,0.0,0.0,82,0.00,,OVC,0.00,VWS V14.01,2013-08-31 04:29:00,
2013-08-30 23:30:00,69.6,63.9,29.76,ENE,69,0.0,0.0,82,0.00,,OVC,0.00,VWS V14.01,2013-08-31 04:30:00,
2013-08-30 23:31:00,68.7,62.3,29.76,East,84,0.0,0.0,80,0.00,,---,0.00,VWS V14.01,2013-08-31 04:31:00,
2013-08-30 23:32:00,69.6,63.5,29.76,ENE,69,0.0,0.0,81,0.00,,OVC,0.00,VWS V14.01,2013-08-31 04:32:00,
2013-08-30 23:33:00,69.6,63.5,29.76,ENE,69,0.0,0.0,81,0.00,,OVC,0.00,VWS V14.01,2013-08-31 04:33:00,
2013-08-30 23:34:00,69.6,63.5,29.76,ENE,69,0.0,0.0,81,0.00,,OVC,0.00,VWS V14.01,2013-08-31 04:34:00,
2013-08-30 23:35:00,69.6,63.5,29.76,ENE,69,0.0,0.0,81,0.00,,OVC,0.00,VWS V14.01,2013-08-31 04:35:00,
2013-08-30 23:36:00,68.4,62.0,29.76,East,84,0.0,0.0,80,0.00,,---,0.00,VWS V14.01,2013-08-31 04:36:00,
2013-08-30 23:37:00,69.6,63.5,29.76,ENE,69,0.0,0.0,81,0.00,,OVC,0.00,VWS V14.01,2013-08-31 04:37:00,
2013-08-30 23:38:00,69.6,63.5,29.76,ENE,69,0.0,0.0,81,0.00,,OVC,0.00,VWS V14.01,2013-08-31 04:38:00,
2013-08-30 23:39:00,69.6,63.5,29.76,ENE,69,0.0,0.0,81,0.00,,OVC,0.00,VWS V14.01,2013-08-31 04:39:00,
2013-08-30 23:40:00,69.4,63.4,29.76,ENE,69,0.0,0.0,81,0.00,,OVC,0.00,VWS V14.01,2013-08-31 04:40:00,
2013-08-30 23:41:00,68.4,62.0,29.76,East,84,0.0,0.0,80,0.00,,---,0.00,VWS V14.01,2013-08-31 04:41:00,
2013-08-30 23:42:00,69.4,63.4,29.76,ENE,66,0.0,0.0,81,0.00,,OVC,0.00,VWS V14.01,2013-08-31 04:42:00,
2013-08-30 23:43:00,69.4,63.4,29.76,East,97,0.0,0.0,81,0.00,,OVC,0.00,VWS V14.01,2013-08-31 04:43:00,
2013-08-30 23:44:00,69.4,63.4,29.76,East,91,0.0,0.0,81,0.00,,OVC,0.00,VWS V14.01,2013-08-31 04:44:00,
2013-08-30 23:45:00,69.4,63.4,29.76,East,101,0.0,0.0,81,0.00,,OVC,0.00,VWS V14.01,2013-08-31 04:45:00,
2013-08-30 23:46:00,68.2,61.8,29.76,East,84,0.0,0.0,80,0.00,,---,0.00,VWS V14.01,2013-08-31 04:46:00,
2013-08-30 23:47:00,69.4,63.4,29.76,East,100,0.0,0.0,81,0.00,,OVC,0.00,VWS V14.01,2013-08-31 04:47:00,
2013-08-30 23:48:00,69.4,63.4,29.76,East,100,0.0,0.0,81,0.00,,OVC,0.00,VWS V14.01,2013-08-31 04:48:00,
2013-08-30 23:49:00,69.4,63.4,29.76,East,100,0.0,0.0,81,0.00,,OVC,0.00,VWS V14.01,2013-08-31 04:49:00,
2013-08-30 23:50:00,69.4,63.4,29.76,East,100,0.0,0.0,81,0.00,,OVC,0.00,VWS V14.01,2013-08-31 04:50:00,
2013-08-30 23:51:00,68.2,61.8,29.76,East,84,0.0,0.0,80,0.00,,---,0.00,VWS V14.01,2013-08-31 04:51:00,
2013-08-30 23:52:00,69.4,63.4,29.76,East,100,0.0,0.0,81,0.00,,OVC,0.00,VWS V14.01,2013-08-31 04:52:00,
2013-08-30 23:53:00,69.4,63.4,29.76,East,100,0.0,0.0,81,0.00,,OVC,0.00,VWS V14.01,2013-08-31 04:53:00,
2013-08-30 23:54:00,69.4,63.4,29.76,East,100,0.0,0.0,81,0.00,,OVC,0.00,VWS V14.01,2013-08-31 04:54:00,
2013-08-30 23:55:00,69.4,63.4,29.76,East,100,0.0,0.0,81,0.00,,OVC,0.00,VWS V14.01,2013-08-31 04:55:00,
2013-08-30 23:56:00,68.0,61.6,29.76,East,84,0.0,0.0,80,0.00,,---,0.00,VWS V14.01,2013-08-31 04:56:00,
2013-08-30 23:57:00,69.3,63.2,29.76,East,100,0.0,0.0,81,0.00,,OVC,0.00,VWS V14.01,2013-08-31 04:57:00,
2013-08-30 23:58:00,69.3,63.2,29.76,East,100,0.0,0.0,81,0.00,,OVC,0.00,VWS V14.01,2013-08-31 04:58:00,
2013-08-30 23:59:00,69.3,63.2,29.76,East,100,0.0,0.0,81,0.00,,OVC,0.00,VWS V14.01,2013-08-31 04:59:00,